z/d,0,0,50,50,100,100,200,200,300,300,400,400,500,500,750,750,1000,1000,2000,2000,3000,3000,4000,4000,4700,4700
2016.10.13-01:00,.64,76.52,.68,69.42,.77,82.25,.81,72.34,.91,76.84,.80,75.96,.64,73.19,.41,70.23,.31,67.91,.13,96.78,.05,48.93,.14,17.05,.01,90.00
2016.10.13-02:00,.62,79.46,.70,71.56,.76,83.99,.81,72.98,.87,77.87,.77,76.23,.63,71.67,.42,69.28,.32,70.91,.12,103.62,.04,43.32,.13,15.70,.00,90.00
2016.10.13-03:00,.62,78.34,.71,72.89,.74,85.00,.81,74.01,.84,78.49,.76,76.13,.64,70.31,.44,68.70,.34,73.73,.12,108.28,.04,40.42,.13,17.69,.01,90.00
2016.10.13-04:00,.62,77.83,.71,73.57,.72,85.27,.81,75.27,.82,78.82,.75,76.04,.66,69.81,.48,69.09,.37,76.18,.11,109.64,.05,41.00,.15,22.13,.01,90.00
2016.10.13-05:00,.63,79.11,.71,73.96,.70,84.61,.80,76.14,.81,78.55,.76,75.77,.70,70.05,.51,70.36,.39,78.19,.11,106.50,.07,44.01,.16,28.16,.01,90.00
2016.10.13-06:00,.62,83.34,.72,74.82,.69,83.26,.80,76.36,.81,77.67,.77,75.29,.73,70.83,.54,72.08,.40,79.58,.11,98.64,.10,46.65,.19,33.82,.02,90.00
2016.10.13-07:00,.60,86.73,.73,76.27,.68,81.50,.81,76.19,.82,76.70,.79,75.06,.75,72.23,.55,74.00,.40,80.19,.10,86.54,.12,48.24,.21,38.05,.03,90.00
2016.10.13-08:00,.59,88.43,.72,78.04,.68,79.59,.83,75.95,.84,76.03,.80,75.31,.77,74.04,.55,75.73,.38,79.79,.10,71.75,.14,48.85,.22,40.63,.03,90.00
2016.10.13-09:00,.57,91.26,.72,79.89,.69,77.85,.84,75.81,.85,75.70,.80,75.85,.77,75.85,.53,77.05,.36,78.64,.11,58.27,.15,48.55,.22,41.46,.03,90.00
2016.10.13-10:00,.54,94.28,.72,81.51,.70,76.49,.84,75.86,.84,75.58,.79,76.26,.74,77.14,.50,77.75,.33,77.04,.12,48.32,.14,47.43,.21,40.64,.02,90.00
2016.10.13-11:00,.49,95.46,.72,82.40,.70,75.31,.83,75.91,.83,75.48,.75,76.07,.70,77.49,.46,77.84,.31,75.76,.13,42.81,.12,45.72,.18,38.08,.02,90.00
2016.10.13-12:00,.45,96.02,.71,82.47,.71,74.25,.81,75.89,.80,75.21,.71,74.94,.65,76.67,.42,77.23,.28,75.22,.13,41.97,.10,43.54,.15,33.42,.01,90.00
2016.10.13-13:00,.44,96.31,.72,82.28,.72,73.66,.78,75.95,.76,74.74,.67,72.89,.60,74.75,.39,75.85,.27,75.49,.13,44.95,.08,39.27,.12,25.27,.00,90.00
2016.10.13-14:00,.43,89.97,.72,82.00,.72,73.43,.76,76.07,.74,74.02,.65,70.27,.58,72.22,.37,74.15,.26,76.80,.13,51.76,.06,33.71,.11,15.75,.00,270.00
2016.10.13-15:00,.43,80.24,.70,81.63,.72,73.41,.75,76.14,.74,73.12,.66,67.78,.58,69.78,.36,72.47,.26,78.53,.13,60.70,.06,30.62,.11,10.30,.00,270.00
2016.10.13-16:00,.47,73.54,.68,81.59,.72,73.86,.75,76.43,.75,72.58,.69,66.29,.60,68.16,.37,70.81,.27,79.34,.14,69.37,.06,33.38,.12,11.24,.00,270.00
2016.10.13-17:00,.49,72.17,.66,81.94,.72,74.67,.76,76.92,.77,72.48,.73,65.81,.64,67.27,.40,68.60,.28,77.63,.16,75.85,.08,40.56,.14,17.09,.01,90.00
2016.10.13-18:00,.52,71.96,.65,82.87,.73,75.83,.78,77.71,.80,72.93,.78,66.24,.68,67.14,.43,66.41,.29,73.82,.17,79.81,.10,47.03,.17,23.61,.02,90.00
2016.10.13-19:00,.53,73.06,.63,83.84,.73,76.88,.79,78.65,.83,73.76,.83,67.42,.72,67.80,.47,65.18,.32,69.68,.18,81.62,.11,51.08,.19,28.44,.02,90.00
2016.10.13-20:00,.54,73.38,.62,84.00,.72,77.35,.80,79.45,.85,74.76,.87,69.16,.76,69.17,.50,65.39,.34,66.85,.18,81.93,.13,53.42,.21,31.52,.03,90.00
2016.10.13-21:00,.57,71.82,.61,82.99,.72,77.23,.80,79.96,.85,75.78,.89,71.28,.77,70.98,.52,66.69,.35,65.61,.17,81.27,.13,54.42,.21,33.00,.03,90.00
2016.10.13-22:00,.60,71.59,.62,81.04,.73,76.77,.79,80.01,.85,76.56,.89,73.43,.77,72.76,.51,68.49,.35,65.64,.16,80.07,.12,54.21,.21,33.04,.04,90.00
2016.10.13-23:00,.64,71.60,.64,79.28,.74,76.71,.77,79.72,.82,76.98,.86,75.35,.73,74.16,.49,70.38,.33,66.88,.13,79.45,.10,52.62,.19,31.45,.03,90.00
2016.10.13-24:00,.67,73.68,.67,78.36,.75,77.27,.74,78.96,.79,76.73,.82,76.58,.69,74.61,.45,71.78,.31,69.23,.11,80.95,.08,48.54,.17,27.89,.02,90.00
2016.10.14-01:00,.71,76.71,.69,78.46,.76,78.37,.72,77.74,.75,75.75,.77,76.93,.64,73.86,.42,72.11,.30,72.26,.10,85.44,.05,38.45,.15,22.33,.02,90.00
2016.10.14-02:00,.71,80.87,.70,79.16,.75,79.61,.70,76.22,.73,74.41,.73,76.63,.61,72.39,.41,71.48,.29,75.32,.09,92.36,.03,18.50,.13,16.61,.01,90.00
2016.10.14-03:00,.69,85.55,.69,79.53,.72,80.31,.68,74.40,.72,73.07,.71,76.06,.62,71.08,.41,70.52,.29,77.75,.08,98.75,.03,1.02,.12,14.30,.00,90.00
2016.10.14-04:00,.64,89.07,.65,78.97,.69,80.09,.68,72.61,.73,72.20,.72,75.70,.64,70.74,.43,70.05,.30,79.23,.08,101.42,.04,6.94,.12,18.18,.01,90.00
2016.10.14-05:00,.58,88.74,.61,77.21,.66,78.96,.70,71.25,.76,72.03,.74,75.81,.68,71.41,.45,70.22,.31,79.54,.09,99.71,.05,23.52,.13,26.30,.01,90.00
2016.10.14-06:00,.54,87.68,.58,74.59,.64,77.26,.73,70.56,.79,72.37,.76,76.21,.71,72.64,.48,70.58,.32,78.39,.09,93.71,.08,36.07,.16,34.34,.02,90.00
2016.10.14-07:00,.50,86.09,.58,71.86,.64,75.40,.76,70.45,.82,72.95,.78,76.70,.73,74.01,.50,70.83,.33,75.96,.10,84.49,.11,42.03,.18,39.21,.02,90.00
2016.10.14-08:00,.48,82.93,.59,69.81,.65,73.79,.80,70.96,.84,73.79,.79,77.35,.74,75.43,.52,71.22,.35,73.31,.11,74.30,.13,44.84,.20,41.45,.03,90.00
2016.10.14-09:00,.46,80.10,.61,68.70,.67,72.43,.83,71.71,.85,74.58,.78,77.82,.74,76.48,.52,71.77,.36,71.23,.12,64.36,.15,45.65,.21,41.43,.03,90.00
2016.10.14-10:00,.42,77.67,.64,68.75,.69,71.41,.84,72.53,.84,75.14,.75,77.71,.71,76.75,.51,72.49,.36,70.22,.13,55.28,.14,44.59,.20,38.95,.03,90.00
2016.10.14-11:00,.40,74.43,.67,69.71,.70,70.78,.84,73.37,.82,75.48,.72,76.94,.68,76.24,.49,73.60,.35,70.80,.13,48.41,.13,42.00,.18,33.92,.02,90.00
2016.10.14-12:00,.36,69.96,.69,70.43,.71,70.03,.82,73.85,.78,75.29,.67,75.26,.63,74.75,.46,74.76,.33,72.75,.13,44.43,.11,37.82,.16,26.32,.01,90.00
2016.10.14-13:00,.34,61.35,.69,70.58,.70,69.27,.78,74.03,.74,74.57,.63,72.70,.59,72.27,.43,75.46,.31,75.65,.12,43.74,.08,31.78,.14,16.81,.00,90.00
2016.10.14-14:00,.35,54.53,.68,70.30,.70,68.79,.75,74.24,.71,73.60,.61,69.70,.56,69.28,.39,75.20,.29,78.93,.11,46.95,.06,24.04,.13,7.77,.00,270.00
2016.10.14-15:00,.38,50.16,.66,69.52,.69,68.56,.73,74.64,.70,72.69,.61,67.08,.56,66.66,.36,73.90,.27,82.10,.10,54.43,.05,18.31,.12,3.13,.00,270.00
2016.10.14-16:00,.43,48.40,.63,67.79,.68,68.23,.73,75.01,.71,72.03,.64,65.49,.58,65.12,.35,71.91,.25,84.27,.11,64.05,.05,21.47,.13,5.28,.00,90.00
2016.10.14-17:00,.46,45.14,.59,65.61,.67,68.18,.73,75.62,.74,72.05,.69,65.34,.62,65.07,.36,69.81,.25,83.98,.12,71.48,.06,32.31,.14,12.98,.01,90.00
2016.10.14-18:00,.46,42.05,.56,63.67,.67,68.61,.75,76.49,.77,72.69,.74,66.14,.68,65.96,.39,67.89,.26,80.76,.14,75.13,.08,42.22,.17,22.20,.02,90.00
2016.10.14-19:00,.48,39.86,.55,62.16,.68,69.30,.75,77.35,.80,73.52,.79,67.19,.72,67.08,.43,66.17,.28,75.33,.16,75.79,.11,48.58,.19,30.17,.03,90.00
2016.10.14-20:00,.51,38.66,.57,61.43,.69,70.34,.76,78.27,.81,74.55,.82,68.49,.76,68.56,.48,65.23,.30,69.80,.17,75.25,.13,52.48,.22,35.91,.04,90.00
2016.10.14-21:00,.53,39.46,.60,60.35,.71,70.97,.75,78.76,.81,75.41,.84,69.83,.78,70.22,.51,64.97,.32,65.33,.18,74.32,.14,54.11,.24,38.95,.04,90.00
2016.10.14-22:00,.58,39.74,.64,59.04,.73,71.09,.73,78.55,.80,75.97,.83,71.23,.77,72.05,.52,65.32,.33,62.45,.17,73.49,.14,53.91,.24,39.66,.04,90.00
2016.10.14-23:00,.62,41.81,.69,58.19,.73,70.78,.70,77.42,.77,76.07,.81,72.65,.74,73.95,.51,66.30,.34,61.44,.16,73.23,.12,51.62,.22,38.17,.04,90.00
2016.10.14-24:00,.65,45.51,.73,58.06,.72,70.05,.66,74.95,.73,75.28,.77,73.72,.70,75.37,.49,67.64,.33,62.20,.14,73.73,.09,45.26,.19,34.14,.03,90.00
2016.10.15-01:00,.67,50.22,.76,58.84,.71,69.31,.63,71.21,.69,73.48,.73,74.14,.64,75.73,.46,69.12,.32,64.68,.11,76.11,.06,31.05,.16,27.76,.02,90.00
2016.10.15-02:00,.65,55.07,.77,60.32,.68,68.86,.61,66.84,.66,70.99,.69,73.83,.59,74.64,.42,70.42,.30,68.67,.10,81.03,.04,1.04,.13,19.07,.00,90.00
2016.10.15-03:00,.63,57.51,.76,61.97,.65,68.39,.61,62.94,.65,68.52,.67,73.11,.56,72.37,.40,71.43,.29,73.65,.08,88.15,.04,332.72,.11,10.79,.00,270.00
2016.10.15-04:00,.58,56.44,.73,62.91,.62,67.19,.63,60.21,.66,66.75,.67,72.52,.56,70.01,.39,72.24,.29,78.58,.08,95.42,.05,328.41,.10,7.95,.01,270.00
2016.10.15-05:00,.49,53.54,.69,62.90,.60,65.02,.66,59.07,.69,66.14,.69,72.63,.59,68.80,.41,73.07,.30,82.14,.08,98.94,.05,344.68,.10,13.49,.01,270.00
2016.10.15-06:00,.42,48.77,.65,62.37,.58,62.44,.70,59.69,.72,66.77,.72,73.57,.63,69.04,.43,73.81,.31,83.51,.09,97.42,.07,8.04,.12,23.03,.00,90.00
2016.10.15-07:00,.36,41.80,.63,61.64,.59,59.91,.74,61.49,.76,68.10,.74,74.79,.67,70.09,.45,74.06,.32,82.50,.10,91.87,.10,25.49,.16,31.41,.01,90.00
2016.10.15-08:00,.34,35.28,.61,61.18,.62,58.02,.78,63.97,.79,69.76,.76,75.97,.71,71.47,.47,73.84,.32,79.62,.11,84.12,.13,35.33,.19,36.46,.02,90.00
2016.10.15-09:00,.35,29.85,.62,60.87,.66,56.82,.81,66.41,.81,71.30,.76,76.77,.72,72.78,.48,73.38,.32,75.90,.11,75.86,.16,40.55,.21,38.44,.03,90.00
2016.10.15-10:00,.37,25.74,.64,60.48,.70,56.18,.82,68.34,.81,72.51,.74,77.08,.71,73.76,.48,72.80,.32,72.34,.12,68.07,.17,43.33,.22,38.08,.03,90.00
2016.10.15-11:00,.41,22.86,.66,60.00,.74,56.02,.82,69.63,.80,73.35,.70,76.93,.68,74.34,.46,72.29,.31,69.83,.11,60.68,.16,44.16,.21,35.35,.02,90.00
2016.10.15-12:00,.46,23.18,.69,59.78,.78,56.51,.80,70.48,.77,74.05,.66,76.56,.64,74.72,.44,72.35,.30,69.24,.10,52.87,.13,42.46,.19,29.74,.02,90.00
2016.10.15-13:00,.53,24.77,.71,58.58,.79,56.70,.77,70.44,.73,74.15,.62,75.59,.59,74.51,.41,72.87,.29,70.73,.09,45.35,.10,38.39,.17,22.24,.01,90.00
2016.10.15-14:00,.58,25.28,.72,56.24,.79,56.40,.74,69.46,.69,73.44,.57,73.54,.54,73.19,.37,73.36,.27,74.10,.08,39.70,.06,30.87,.14,14.34,.00,90.00
2016.10.15-15:00,.62,25.77,.73,53.84,.78,56.37,.71,68.28,.66,72.25,.55,70.48,.51,70.73,.34,72.92,.25,78.51,.07,38.47,.04,17.48,.13,8.56,.00,270.00
2016.10.15-16:00,.65,26.98,.72,51.95,.77,57.13,.70,67.72,.66,71.20,.55,67.37,.51,67.88,.32,70.97,.24,82.55,.07,44.26,.03,5.65,.12,8.37,.00,270.00
2016.10.15-17:00,.66,24.69,.72,50.56,.76,58.71,.71,68.01,.66,70.55,.58,65.13,.53,65.67,.33,67.87,.23,84.42,.08,54.60,.03,17.08,.12,14.71,.01,90.00
2016.10.15-18:00,.68,26.13,.71,49.55,.75,60.89,.72,68.88,.68,70.27,.62,64.12,.58,64.67,.36,64.92,.24,83.19,.11,62.99,.04,36.40,.14,24.39,.01,90.00
2016.10.15-19:00,.69,25.84,.72,49.39,.75,63.44,.73,70.17,.70,70.36,.67,64.25,.63,64.98,.40,63.01,.26,79.24,.14,67.08,.07,45.42,.17,33.21,.02,90.00
2016.10.15-20:00,.72,27.57,.75,49.93,.76,65.73,.74,71.47,.72,70.63,.72,65.13,.68,66.25,.45,62.23,.27,73.78,.17,68.46,.11,48.75,.21,39.42,.03,90.00
2016.10.15-21:00,.77,30.52,.80,50.97,.76,67.16,.74,72.35,.74,70.86,.75,66.38,.72,68.14,.49,62.48,.30,68.44,.19,68.89,.13,49.22,.24,42.79,.04,90.00
2016.10.15-22:00,.85,34.21,.87,52.48,.76,67.64,.73,72.55,.74,70.94,.77,67.85,.73,70.42,.52,63.59,.32,64.37,.20,69.19,.14,47.40,.25,43.59,.04,90.00
2016.10.15-23:00,.92,37.88,.93,54.44,.77,67.30,.71,71.77,.73,70.63,.77,69.21,.72,72.64,.53,65.26,.33,61.88,.19,69.85,.14,43.33,.24,42.15,.04,90.00
2016.10.15-24:00,.93,40.94,.99,56.95,.77,66.34,.68,69.66,.71,69.54,.75,69.96,.68,74.22,.52,67.35,.33,61.12,.17,71.42,.12,36.09,.21,38.34,.03,90.00
2016.10.16-01:00,.93,44.65,1.03,60.24,.76,65.11,.66,66.33,.69,67.62,.71,69.95,.63,74.80,.49,70.05,.33,62.55,.15,74.57,.10,23.52,.18,31.51,.01,90.00
2016.10.16-02:00,.94,49.51,1.05,63.99,.75,63.48,.65,62.02,.67,64.97,.68,69.16,.57,74.03,.45,73.28,.31,66.17,.12,80.38,.08,4.80,.14,21.51,.00,90.00
2016.10.16-03:00,.90,53.78,1.04,67.71,.74,61.52,.65,57.85,.66,62.57,.66,68.23,.53,72.11,.42,76.49,.29,71.34,.09,89.59,.07,346.23,.12,10.56,.01,270.00
2016.10.16-04:00,.79,55.80,1.00,70.94,.73,59.47,.68,55.28,.68,61.66,.65,68.13,.52,69.94,.39,78.80,.28,76.96,.08,101.38,.07,338.22,.11,4.36,.01,270.00
2016.10.16-05:00,.69,56.05,.91,73.12,.71,57.41,.71,54.67,.70,62.39,.67,69.10,.53,68.37,.37,79.38,.27,81.64,.07,110.51,.07,344.79,.11,7.28,.01,270.00
2016.10.16-06:00,.61,54.82,.82,74.10,.71,56.14,.76,56.02,.74,64.58,.70,71.18,.57,68.09,.37,78.56,.27,84.36,.08,112.45,.08,2.80,.12,16.80,.01,270.00
2016.10.16-07:00,.54,46.37,.74,73.43,.73,55.91,.80,58.55,.77,67.40,.72,73.65,.60,68.68,.39,77.01,.27,84.49,.08,107.25,.10,22.34,.15,27.24,.00,90.00
2016.10.16-08:00,.52,37.43,.68,70.89,.76,56.56,.84,61.56,.79,70.21,.73,75.85,.64,69.54,.40,75.31,.28,82.19,.09,97.48,.13,35.91,.18,35.13,.01,90.00
2016.10.16-09:00,.54,29.82,.66,67.56,.79,58.26,.87,64.95,.80,72.96,.74,77.57,.66,70.60,.42,74.17,.29,78.46,.10,85.33,.16,43.40,.22,39.48,.03,90.00
2016.10.16-10:00,.57,21.45,.68,64.17,.84,60.33,.89,68.09,.81,75.12,.73,78.37,.68,71.66,.43,73.73,.30,74.64,.10,72.61,.17,47.11,.24,40.77,.03,90.00
2016.10.16-11:00,.67,18.68,.72,61.27,.87,62.29,.89,70.58,.79,76.38,.70,78.25,.67,72.69,.44,73.75,.31,71.71,.10,60.81,.17,48.55,.24,39.68,.03,90.00
2016.10.16-12:00,.79,21.78,.78,59.11,.90,64.00,.88,72.18,.76,76.50,.66,77.12,.64,73.47,.42,73.75,.30,69.99,.09,50.13,.14,48.04,.22,36.57,.03,90.00
2016.10.16-13:00,.88,21.91,.84,58.02,.91,65.60,.84,72.86,.71,75.43,.61,75.03,.59,73.88,.38,73.57,.28,70.01,.09,39.83,.10,44.48,.19,31.41,.02,90.00
2016.10.16-14:00,.96,23.15,.90,57.69,.91,66.98,.81,72.63,.66,73.27,.56,72.23,.54,73.78,.34,73.11,.26,72.52,.08,30.59,.06,33.62,.16,24.07,.01,90.00
2016.10.16-15:00,1.00,25.86,.94,57.69,.89,67.90,.77,71.70,.63,70.50,.54,69.22,.50,72.94,.30,71.58,.24,77.22,.07,25.68,.04,2.59,.13,15.33,.00,90.00
2016.10.16-16:00,1.01,30.21,.96,58.39,.85,68.67,.74,70.88,.62,68.35,.53,67.15,.48,71.64,.28,68.26,.22,82.78,.07,28.81,.03,323.66,.11,8.34,.00,270.00
2016.10.16-17:00,1.02,35.49,.96,59.76,.82,69.45,.73,70.56,.64,67.50,.56,66.51,.50,70.18,.28,63.66,.21,86.71,.08,40.64,.04,319.63,.11,8.04,.00,270.00
2016.10.16-18:00,1.01,38.64,.94,60.97,.78,69.63,.74,70.27,.67,67.37,.60,66.60,.53,68.71,.31,59.77,.21,86.60,.09,55.39,.04,343.71,.12,15.93,.00,90.00
2016.10.16-19:00,.99,39.72,.91,62.02,.75,69.16,.74,69.93,.70,67.55,.64,66.96,.58,67.74,.36,57.86,.22,82.22,.12,65.52,.06,15.43,.14,27.18,.01,90.00
2016.10.16-20:00,.98,40.62,.89,63.17,.74,68.25,.76,69.55,.73,67.72,.68,67.17,.63,67.36,.43,57.50,.24,75.46,.15,70.32,.10,33.21,.18,36.52,.02,90.00
2016.10.16-21:00,1.00,42.92,.90,64.96,.75,67.69,.78,69.65,.76,68.21,.71,67.53,.67,67.85,.49,58.39,.26,68.62,.18,71.74,.14,40.41,.22,41.98,.03,90.00
2016.10.16-22:00,1.03,46.75,.93,67.29,.78,67.79,.80,70.39,.79,69.22,.74,68.28,.70,69.21,.53,60.31,.29,63.31,.19,71.51,.17,42.07,.25,43.77,.04,90.00
2016.10.16-23:00,1.08,50.94,.96,69.36,.81,67.81,.82,70.97,.81,70.10,.75,68.93,.71,70.82,.56,62.82,.32,60.21,.19,71.15,.18,40.76,.26,42.81,.04,90.00
2016.10.16-24:00,1.11,54.87,.99,71.08,.83,67.23,.81,70.54,.80,70.19,.74,68.89,.68,72.02,.56,65.66,.33,59.09,.18,71.55,.17,37.37,.25,39.65,.03,90.00
2016.10.17-01:00,1.13,58.70,1.02,73.00,.83,66.14,.79,68.83,.77,69.36,.71,68.14,.64,72.62,.54,69.10,.34,59.85,.15,73.04,.15,31.13,.22,34.12,.02,90.00
2016.10.17-02:00,1.12,62.28,1.04,75.41,.83,64.71,.77,66.18,.74,68.05,.68,67.16,.59,72.85,.50,73.52,.33,62.68,.12,75.88,.12,20.43,.18,25.97,.00,90.00
2016.10.17-03:00,1.09,65.20,1.01,77.82,.83,62.97,.76,63.33,.72,66.85,.65,66.49,.54,72.69,.46,78.54,.31,67.38,.08,80.49,.09,4.49,.15,15.81,.01,270.00
2016.10.17-04:00,1.02,67.76,.94,79.80,.82,61.47,.77,61.41,.72,66.61,.65,66.81,.52,72.26,.41,83.30,.29,73.65,.06,88.25,.08,347.86,.13,6.34,.02,270.00
2016.10.17-05:00,.93,69.10,.84,80.74,.82,60.71,.79,60.87,.72,67.42,.66,68.05,.52,71.45,.38,86.33,.27,80.16,.04,98.83,.08,341.02,.12,3.20,.02,270.00
2016.10.17-06:00,.86,65.81,.75,80.44,.83,61.26,.81,61.83,.73,69.15,.68,70.08,.54,70.75,.35,86.79,.25,85.22,.04,103.74,.07,349.08,.12,9.30,.01,270.00
2016.10.17-07:00,.85,60.30,.68,78.98,.85,63.11,.84,64.04,.75,71.42,.71,72.61,.57,70.73,.34,84.92,.25,87.39,.05,97.60,.08,8.45,.13,20.92,.00,270.00
2016.10.17-08:00,.87,56.96,.63,75.92,.86,65.33,.86,66.54,.75,73.16,.72,74.73,.60,71.03,.33,81.22,.25,85.68,.07,87.26,.11,27.47,.16,32.25,.01,90.00
2016.10.17-09:00,.90,56.04,.60,71.98,.87,67.80,.88,69.13,.76,74.17,.73,76.18,.62,71.63,.34,76.84,.25,80.78,.09,77.87,.14,39.28,.20,39.79,.02,90.00
2016.10.17-10:00,.97,57.05,.61,68.26,.88,70.28,.90,71.60,.77,74.52,.73,76.92,.64,72.42,.36,72.79,.26,74.69,.10,69.86,.16,45.18,.22,43.16,.03,90.00
2016.10.17-11:00,1.04,59.22,.64,65.16,.89,72.17,.91,73.45,.77,74.13,.72,76.85,.64,73.03,.37,69.25,.27,69.42,.10,63.08,.17,47.73,.23,43.33,.03,90.00
2016.10.17-12:00,1.11,62.55,.69,62.98,.89,73.38,.91,74.58,.76,73.24,.69,76.17,.63,73.28,.38,66.23,.28,66.01,.10,56.84,.15,47.86,.22,40.78,.03,90.00
2016.10.17-13:00,1.17,66.71,.74,61.66,.88,73.89,.88,74.98,.74,72.09,.66,75.19,.60,73.33,.38,64.27,.29,65.15,.09,49.72,.12,44.49,.19,34.91,.02,90.00
2016.10.17-14:00,1.21,71.07,.80,60.58,.86,73.41,.84,74.42,.71,70.53,.62,73.83,.56,73.13,.37,63.66,.28,67.33,.07,41.44,.08,34.50,.15,25.08,.01,90.00
2016.10.17-15:00,1.21,75.46,.84,59.65,.84,72.24,.80,73.07,.69,68.72,.59,72.07,.52,72.40,.34,63.90,.26,72.17,.06,33.14,.05,7.79,.13,10.99,.01,270.00
2016.10.17-16:00,1.15,79.98,.86,59.18,.82,71.05,.78,71.40,.68,67.03,.58,70.07,.50,70.85,.32,63.97,.24,78.48,.05,30.56,.05,325.70,.11,355.93,.02,270.00
2016.10.17-17:00,1.04,84.33,.86,59.31,.79,70.13,.76,69.98,.69,65.95,.59,68.38,.51,68.87,.31,63.20,.22,84.29,.05,40.43,.05,308.57,.11,348.65,.02,270.00
2016.10.17-18:00,.92,87.83,.86,60.19,.77,69.53,.77,69.32,.72,65.89,.62,67.72,.53,67.47,.32,61.76,.21,86.96,.06,55.48,.05,316.37,.11,354.38,.02,270.00
2016.10.17-19:00,.78,89.37,.87,62.00,.77,69.49,.79,69.70,.76,66.89,.66,68.27,.58,67.38,.35,60.81,.20,85.14,.08,64.88,.06,347.32,.12,10.57,.01,270.00
2016.10.17-20:00,.67,88.74,.88,64.55,.77,69.93,.81,70.68,.79,68.21,.70,69.17,.62,67.92,.39,60.31,.21,79.11,.11,68.62,.08,19.07,.16,26.83,.00,90.00
2016.10.17-21:00,.61,86.37,.89,67.49,.79,70.52,.83,71.66,.83,69.29,.74,69.72,.66,68.44,.44,59.89,.22,70.50,.14,69.78,.12,33.77,.21,36.70,.02,90.00
2016.10.17-22:00,.59,82.93,.92,70.81,.82,71.43,.86,72.78,.86,70.49,.77,70.42,.70,69.38,.50,60.04,.26,62.79,.16,69.46,.16,39.30,.25,41.26,.03,90.00
2016.10.17-23:00,.61,79.07,.94,73.77,.85,72.17,.88,73.68,.88,71.63,.79,71.20,.72,70.67,.54,60.88,.30,57.99,.17,68.58,.19,40.95,.27,42.69,.03,90.00
2016.10.17-24:00,.63,75.58,.96,76.26,.86,72.45,.87,73.96,.88,72.48,.78,71.89,.71,72.11,.57,62.61,.34,56.31,.17,67.42,.19,39.96,.27,41.64,.03,90.00
2016.10.18-01:00,.65,73.12,.96,78.43,.86,71.88,.85,73.04,.86,72.61,.76,72.08,.68,73.28,.57,65.25,.36,57.18,.16,66.26,.18,36.60,.25,38.42,.02,90.00
2016.10.18-02:00,.67,72.57,.95,80.68,.85,70.69,.82,70.96,.83,72.11,.72,71.80,.64,73.99,.55,68.82,.36,60.10,.13,65.23,.15,30.18,.21,32.89,.01,90.00
2016.10.18-03:00,.68,72.19,.91,82.61,.83,69.01,.80,68.16,.80,71.27,.69,71.24,.59,74.01,.51,73.34,.35,65.03,.10,64.40,.12,19.12,.17,24.61,.00,270.00
2016.10.18-04:00,.70,70.29,.83,83.21,.82,66.79,.79,65.28,.78,70.38,.67,70.61,.56,73.27,.47,78.57,.33,72.06,.07,65.04,.09,3.09,.14,13.95,.01,270.00
2016.10.18-05:00,.64,69.40,.73,81.98,.80,64.76,.79,63.20,.76,69.91,.66,70.32,.54,72.04,.43,83.60,.31,80.06,.05,69.52,.08,350.32,.12,6.14,.02,270.00
2016.10.18-06:00,.58,67.96,.65,78.61,.81,64.05,.80,62.52,.76,70.04,.67,70.43,.54,70.66,.39,86.97,.28,87.14,.04,78.79,.07,349.97,.11,7.08,.02,270.00
2016.10.18-07:00,.55,67.70,.62,74.50,.84,65.46,.83,63.59,.77,70.93,.68,71.07,.56,69.83,.36,87.59,.25,91.37,.04,84.97,.07,2.89,.11,16.21,.01,270.00
2016.10.18-08:00,.51,69.25,.61,71.40,.88,68.67,.87,66.06,.79,72.46,.70,72.22,.60,70.01,.34,85.47,.23,91.47,.05,82.04,.09,21.35,.13,27.48,.00,270.00
2016.10.18-09:00,.43,70.35,.61,68.58,.89,72.20,.91,68.67,.81,73.60,.72,72.85,.63,70.36,.33,80.51,.22,86.60,.08,76.80,.11,35.90,.16,36.36,.01,90.00
2016.10.18-10:00,.34,70.42,.61,66.24,.89,75.63,.94,71.21,.83,74.45,.74,73.02,.67,71.07,.35,74.76,.23,78.67,.10,72.01,.14,44.22,.18,41.02,.02,90.00
2016.10.18-11:00,.28,69.47,.63,64.58,.88,78.59,.96,73.57,.84,75.11,.75,72.98,.69,72.23,.37,70.31,.24,71.49,.11,68.18,.16,47.84,.20,41.54,.02,90.00
2016.10.18-12:00,.27,66.11,.68,63.66,.86,80.59,.96,75.48,.83,75.34,.75,72.57,.70,73.35,.39,67.13,.26,66.61,.11,65.69,.15,48.52,.20,38.73,.02,90.00
2016.10.18-13:00,.30,63.92,.75,64.01,.83,81.55,.95,76.89,.82,75.13,.74,72.00,.68,74.42,.40,65.18,.27,64.27,.10,64.13,.14,45.99,.19,32.23,.01,90.00
2016.10.18-14:00,.35,62.43,.82,64.97,.80,81.11,.92,77.52,.79,74.34,.72,71.43,.65,75.50,.40,64.72,.27,64.50,.08,63.10,.10,38.50,.17,21.62,.00,270.00
2016.10.18-15:00,.41,59.86,.89,65.95,.77,79.16,.88,77.19,.76,72.95,.70,70.95,.61,76.47,.38,65.58,.27,66.88,.06,62.30,.07,22.08,.15,8.54,.01,270.00
2016.10.18-16:00,.46,57.10,.92,66.92,.74,76.20,.84,75.96,.74,71.04,.69,70.47,.57,76.65,.35,66.86,.25,70.71,.03,62.52,.05,350.95,.13,356.39,.02,270.00
2016.10.18-17:00,.50,55.98,.92,68.31,.72,73.38,.82,74.54,.74,69.38,.69,70.32,.55,75.83,.34,67.84,.24,75.16,.01,66.00,.05,319.98,.13,349.10,.02,270.00
2016.10.18-18:00,.56,57.32,.90,70.44,.72,71.70,.82,73.87,.76,68.79,.72,70.87,.56,74.50,.33,68.02,.23,78.76,.01,69.27,.05,312.19,.12,350.77,.02,270.00
2016.10.18-19:00,.58,58.13,.87,72.61,.73,70.99,.82,73.86,.79,68.88,.75,71.59,.57,72.94,.34,67.04,.22,79.77,.02,64.92,.05,330.69,.12,4.08,.01,270.00
2016.10.18-20:00,.60,59.44,.85,74.60,.75,71.43,.84,74.61,.83,69.68,.78,72.70,.61,72.17,.36,65.88,.22,77.96,.05,60.44,.06,6.74,.15,22.04,.00,270.00
2016.10.18-21:00,.65,62.04,.84,76.74,.78,73.16,.86,75.87,.87,70.92,.82,74.02,.66,72.27,.39,64.74,.23,73.34,.08,57.44,.10,27.80,.19,34.94,.01,90.00
2016.10.18-22:00,.70,65.01,.84,78.85,.81,75.28,.88,76.86,.91,71.95,.85,75.02,.70,72.61,.44,63.47,.26,67.49,.12,56.21,.14,36.81,.23,42.24,.03,90.00
2016.10.18-23:00,.74,68.67,.84,80.87,.83,77.26,.90,77.51,.94,73.10,.87,76.02,.73,73.36,.50,62.74,.30,63.08,.15,55.92,.17,40.13,.25,45.24,.03,90.00
2016.10.18-24:00,.79,71.24,.83,82.35,.83,78.21,.90,77.58,.95,74.35,.87,76.99,.74,74.23,.54,62.56,.34,60.83,.17,56.41,.19,40.68,.26,45.33,.03,90.00
2016.10.19-01:00,.83,74.22,.83,83.36,.82,77.80,.89,76.95,.95,75.59,.85,77.92,.72,75.08,.56,63.32,.37,60.89,.18,57.24,.19,38.82,.25,42.84,.03,90.00
2016.10.19-02:00,.85,76.78,.83,84.00,.81,76.13,.88,75.31,.94,76.34,.82,78.54,.68,75.57,.56,65.35,.39,63.15,.16,58.26,.18,34.66,.23,38.01,.02,90.00
2016.10.19-03:00,.89,79.80,.84,84.51,.81,74.08,.85,72.66,.90,76.32,.77,78.59,.63,75.29,.54,68.72,.38,67.27,.14,59.51,.15,28.35,.19,31.12,.00,90.00
2016.10.19-04:00,.88,82.59,.81,84.71,.81,72.36,.83,69.30,.85,75.44,.72,77.76,.58,73.68,.50,73.12,.36,73.09,.11,61.74,.12,19.90,.16,22.06,.01,270.00
2016.10.19-05:00,.79,85.01,.74,84.24,.79,71.14,.83,66.32,.82,74.22,.69,76.22,.55,70.99,.47,77.93,.34,80.11,.08,66.25,.10,9.62,.13,10.77,.02,270.00
2016.10.19-06:00,.68,87.27,.67,83.13,.78,71.28,.84,65.56,.81,73.97,.68,75.17,.55,68.89,.44,82.65,.31,87.66,.06,73.72,.08,1.73,.11,1.16,.02,270.00
2016.10.19-07:00,.59,89.13,.64,81.95,.79,73.15,.88,67.03,.82,74.67,.69,74.49,.58,67.41,.41,85.55,.27,94.21,.05,84.28,.07,5.41,.11,1.49,.02,270.00
2016.10.19-08:00,.48,90.72,.63,81.72,.81,76.61,.91,69.93,.82,75.85,.70,73.94,.61,66.53,.37,85.12,.23,97.45,.06,92.46,.08,20.36,.12,11.36,.02,270.00
2016.10.19-09:00,.41,90.59,.61,81.91,.82,80.80,.94,73.48,.84,77.16,.73,73.64,.67,66.88,.36,81.56,.20,94.49,.07,92.91,.10,34.72,.14,22.23,.01,270.00
2016.10.19-10:00,.29,86.46,.58,81.39,.80,84.74,.95,76.85,.84,78.05,.75,73.33,.72,68.06,.37,76.06,.19,83.81,.08,88.28,.12,44.26,.16,30.11,.00,90.00
2016.10.19-11:00,.19,64.50,.56,79.62,.78,87.65,.96,79.72,.84,78.48,.77,73.15,.76,69.86,.39,70.94,.20,70.62,.09,83.25,.14,49.35,.18,33.73,.01,90.00
2016.10.19-12:00,.21,30.49,.56,76.84,.75,89.00,.96,81.89,.85,78.63,.79,73.40,.78,72.12,.42,67.85,.23,62.06,.10,79.50,.15,50.62,.20,33.14,.01,90.00
2016.10.19-13:00,.32,23.14,.59,74.56,.73,88.75,.95,83.26,.85,78.65,.80,74.10,.79,74.60,.44,66.89,.26,58.81,.09,76.71,.14,48.18,.20,28.89,.01,90.00
2016.10.19-14:00,.44,26.25,.63,74.03,.70,87.43,.93,83.71,.84,78.42,.79,74.95,.77,76.96,.45,67.68,.28,58.86,.07,72.80,.11,41.40,.19,22.19,.00,90.00
2016.10.19-15:00,.57,32.94,.68,74.32,.68,85.17,.88,82.91,.81,77.52,.77,75.47,.73,78.95,.44,69.93,.29,60.70,.04,63.57,.09,29.19,.18,15.06,.00,270.00
2016.10.19-16:00,.69,40.27,.73,74.39,.67,82.05,.83,80.79,.77,75.59,.72,75.23,.67,80.25,.41,73.39,.29,63.83,.02,29.82,.06,8.92,.16,8.71,.01,270.00
2016.10.19-17:00,.78,49.05,.74,74.39,.65,79.10,.79,77.97,.75,72.97,.70,74.12,.62,80.46,.38,77.34,.28,68.23,.02,323.80,.05,338.58,.14,2.70,.01,270.00